Saranac Lake, NY

6:24 PM EDT on September 23, 2017 (GMT -0400)
Adirondack Regional

Weather History for KSLK - December, 2013

Change the Weather History Date:

Thursday, December 12, 2013

  Actual Average Record
Temperature  
Mean Temperature 1 °F 20 °F  
Max Temperature 12 °F 30 °F 55 °F (1971)
Min Temperature -10 °F 11 °F -30 °F (1988)
Degree Days  
Heating Degree Days 64 45  
Month to date heating degree days 509 509  
Since 1 July heating degree days 2895 2784  
Cooling Degree Days 0 0  
Month to date cooling degree days 0  
Year to date cooling degree days 114  
Moisture  
Dew Point 2 °F    
Average Humidity 72    
Maximum Humidity 92    
Minimum Humidity 52    
Precipitation  
Precipitation T in 0.08 in 2.80 in (1952)
Month to date precipitation 0.29 1.05  
Year to date precipitation 39.14 36.28  
Sea Level Pressure  
Sea Level Pressure 30.02 in    
Wind  
Wind Speed 8 mph (SW)    
Max Wind Speed 20 mph    
Max Gust Speed 26 mph    
Visibility 4 miles    
Events Fog , Snow    
T = Trace of Precipitation, MM = Missing Value Source: NWS Daily Summary

Daily Weather History Graph

Daily Weather History Graph

Search for Another Location

Airport or City:

Trip Planner

Search our weather history database for the weather conditions in past years. The results will help you decide how hot, cold, wet, or windy it might be!

Date:

Astronomy

Dec. 12, 2013 Rise Set
Actual Time 7:23 AM EST 4:17 PM EST
Civil Twilight 6:50 AM EST 4:50 PM EST
Nautical Twilight 6:13 AM EST 5:27 PM EST
Astronomical Twilight 5:38 AM EST 6:02 PM EST
Moon 1:30 PM EST (12/12) 2:35 AM EST (12/12)
Length of Visible Light 10h 00m
Length of Day
8h 53m
Waxing Gibbous, 80% of the Moon is Illuminated
Dec 12
Waxing Gibbous
Dec 17
Full
Dec 25
Last Quarter
Jan 1
New
Jan 7
First Quarter

Hourly Weather History & Observations

Time (EST) Temp. Windchill Dew Point Humidity Pressure Visibility Wind Dir Wind Speed Gust Speed Precip Events Conditions
12:44 AM 6.8 °F -4.8 °F -2.2 °F 67% 30.06 in 10.0 mi West 6.9 mph - N/A   Partly Cloudy
12:51 AM 5.0 °F -4.1 °F -2.9 °F 70% 30.17 in 10.0 mi WNW 4.6 mph - N/A   Partly Cloudy
1:51 AM 3.0 °F -8.0 °F -5.1 °F 69% 30.19 in 10.0 mi WNW 5.8 mph - N/A   Clear
2:51 AM 1.9 °F -7.6 °F -6.0 °F 69% 30.20 in 10.0 mi West 4.6 mph - N/A   Clear
3:51 AM -0.9 °F -11.0 °F -5.1 °F 83% 30.21 in 10.0 mi WSW 4.6 mph - N/A   Clear
4:51 AM -2.0 °F -10.1 °F -6.0 °F 83% 30.20 in 10.0 mi WSW 3.5 mph - N/A   Clear
5:51 AM -4.0 °F -14.6 °F -7.1 °F 87% 30.22 in 10.0 mi SW 4.6 mph - N/A   Clear
6:51 AM -5.1 °F - -8.0 °F 87% 30.25 in 10.0 mi Calm Calm - N/A   Clear
7:51 AM -9.0 °F - -11.0 °F 91% 30.27 in 10.0 mi Calm Calm - N/A   Clear
8:51 AM -0.9 °F -12.7 °F -6.0 °F 79% 30.27 in 10.0 mi SSW 5.8 mph - N/A   Partly Cloudy
9:51 AM 1.9 °F -11.8 °F -5.1 °F 72% 30.25 in 10.0 mi SSW 8.1 mph - N/A   Clear
10:51 AM 5.0 °F -8.1 °F -6.0 °F 61% 30.21 in 10.0 mi SSW 8.1 mph - N/A   Clear
11:51 AM 7.0 °F -4.5 °F -5.1 °F 58% 30.18 in 10.0 mi SW 6.9 mph - N/A   Scattered Clouds
12:51 PM 10.0 °F -3.7 °F -4.0 °F 53% 30.14 in 10.0 mi SSW 10.4 mph 16.1 mph N/A   Overcast
1:51 PM 10.0 °F -2.9 °F 1.0 °F 67% 30.12 in 9.0 mi WSW 9.2 mph - N/A   Overcast
2:48 PM 10.4 °F -2.4 °F 3.2 °F 73% 29.97 in 3.0 mi SSW 9.2 mph - N/A   Haze
2:51 PM 10.0 °F -4.5 °F 3.9 °F 76% 30.09 in 3.0 mi SSW 11.5 mph - N/A   Haze
3:15 PM 10.4 °F -3.3 °F 3.2 °F 73% 29.96 in 1.8 mi SSW 10.4 mph - 0.00 in Snow Light Snow
3:26 PM 10.4 °F -3.3 °F 3.2 °F 73% 29.96 in 3.0 mi SSW 10.4 mph - 0.00 in Snow Light Snow
3:51 PM 10.0 °F -4.5 °F 3.9 °F 76% 30.06 in 2.0 mi SSW 11.5 mph - 0.00 in   Haze
3:59 PM 10.4 °F -3.3 °F 5.0 °F 79% 29.94 in 1.5 mi SSW 10.4 mph - 0.00 in Snow Light Snow
4:06 PM 10.4 °F -3.3 °F 5.0 °F 79% 29.94 in 1.0 mi SSW 10.4 mph - 0.00 in Snow Light Snow
4:13 PM 10.4 °F -4.8 °F 5.0 °F 79% 29.94 in 0.5 mi SSW 12.7 mph - 0.00 in Snow Snow
4:28 PM 10.4 °F -2.4 °F 6.8 °F 85% 29.93 in 0.5 mi SSW 9.2 mph - 0.00 in Fog , Snow Snow
4:39 PM 10.4 °F -3.3 °F 6.8 °F 85% 29.93 in 1.5 mi SSW 10.4 mph - 0.00 in Snow Light Snow
4:44 PM 10.4 °F -4.8 °F 6.8 °F 85% 29.93 in 2.5 mi SSW 12.7 mph - 0.00 in Snow Light Snow
4:51 PM 10.0 °F -5.9 °F 6.1 °F 84% 30.05 in 6.0 mi SW 13.8 mph 19.6 mph 0.00 in   Overcast
5:51 PM 10.9 °F -5.9 °F 5.0 °F 77% 30.03 in 3.0 mi SW 16.1 mph 26.5 mph 0.00 in Snow Light Snow
6:01 PM 10.4 °F -4.8 °F 5.0 °F 79% 29.91 in 4.0 mi SW 12.7 mph - 0.00 in   Haze
6:13 PM 10.4 °F -6.6 °F 5.0 °F 79% 29.91 in 2.5 mi SW 16.1 mph 20.7 mph 0.00 in Snow Light Snow
6:34 PM 10.4 °F -6.6 °F 6.8 °F 85% 29.91 in 1.8 mi SW 16.1 mph 23.0 mph 0.00 in Snow Light Snow
6:51 PM 10.0 °F -4.5 °F 6.1 °F 84% 30.03 in 1.2 mi SW 11.5 mph 21.9 mph 0.00 in Snow Light Snow
7:05 PM 10.4 °F -3.3 °F 6.8 °F 85% 29.90 in 1.0 mi SW 10.4 mph - 0.00 in Snow Light Snow
7:51 PM 10.0 °F -4.5 °F 7.0 °F 87% 30.02 in 1.0 mi SW 11.5 mph 19.6 mph 0.00 in Snow Light Snow
8:30 PM 10.4 °F -2.4 °F 6.8 °F 85% 29.88 in 0.8 mi WSW 9.2 mph - 0.00 in Snow Light Snow
8:42 PM 10.4 °F -2.4 °F 6.8 °F 85% 29.87 in 1.0 mi WSW 9.2 mph 19.6 mph 0.00 in Snow Light Snow
8:51 PM 10.9 °F -1.8 °F 7.0 °F 84% 29.99 in 1.0 mi SW 9.2 mph - 0.00 in Snow Light Snow
9:07 PM 10.4 °F -3.3 °F 6.8 °F 85% 29.86 in 1.8 mi WSW 10.4 mph - 0.00 in Snow Light Snow
9:22 PM 10.4 °F -2.4 °F 6.8 °F 85% 29.86 in 2.0 mi SW 9.2 mph - 0.00 in Snow Light Snow
9:33 PM 10.4 °F -4.1 °F 6.8 °F 85% 29.85 in 1.8 mi SW 11.5 mph - 0.00 in Snow Light Snow
9:51 PM 10.9 °F -2.6 °F 7.0 °F 84% 29.96 in 1.2 mi SW 10.4 mph - 0.00 in Snow Light Snow
10:06 PM 10.4 °F -2.4 °F 6.8 °F 85% 29.84 in 1.0 mi SW 9.2 mph - 0.00 in Snow Light Snow
10:16 PM 10.4 °F -3.3 °F 6.8 °F 85% 29.83 in 1.0 mi SW 10.4 mph - 0.00 in Snow Light Snow
10:51 PM 10.9 °F -1.8 °F 7.0 °F 84% 29.92 in 1.8 mi SW 9.2 mph - 0.00 in Snow Light Snow
11:51 PM 10.9 °F -4.1 °F 7.0 °F 84% 29.88 in 1.5 mi SW 12.7 mph - 0.00 in Snow Light Snow